Regional Weather Roundup
Issued by NWS

Home | Current Version | Previous Version | Text Only | Print | Product List | Glossary Off
Versions: 1 2 3 4 5 6 7 8 9 10 11 12 13 14 15 16 17 18 19 20 21 22 23 24 25 26 27 28 29 30 31 32 33 34 35 36 37 38 39 40 41 42 43 44 45 46 47 48 49 50

000
ASUS43 KLOT 180803
RWRIL

ILLINOIS REGIONAL WEATHER ROUNDUP
NATIONAL WEATHER SERVICE CHICAGO/ROMEOVILLE IL
200 AM CST SAT NOV 18 2017

NOTE: "FAIR" INDICATES FEW OR NO CLOUDS BELOW 12,000 FEET WITH NO
SIGNIFICANT WEATHER AND/OR OBSTRUCTIONS TO VISIBILITY.

* THESE STATIONS ARE NOT UNDER NWS QUALITY CONTROL. THEY ALSO MAY NOT
  REPORT WEATHER SUCH AS PRECIPITATION OR FOG.

ILZ001-002-007-009-015-016-024-180900-
NORTHWEST ILLINOIS

CITY           SKY/WX    TMP DP  RH WIND       PRES   REMARKS
MOLINE         CLOUDY    46  43  89 NE5       29.51S FOG
STERLING*        N/A    N/A N/A N/A MISG        N/A
SAVANNA*       CLOUDY    42  42  99 NE3       29.53F FOG
$$

ILZ003-004-008-010-011-017-018-180900-
NORTH CENTRAL ILLINOIS

CITY           SKY/WX    TMP DP  RH WIND       PRES   REMARKS
ROCKFORD       CLOUDY    42  41  96 N6        29.55F FOG
FREEPORT*      CLOUDY    40  40  99 NE3       29.55F FOG
ROCHELLE*      CLOUDY    42  42 100 NE6       29.54F FOG
DE KALB*       CLOUDY    43  43 100 E3        29.54F FOG
PERU*          CLOUDY    47  46  95 N3        29.53R FOG
$$

ILZ005-006-012>014-019>023-180900-
NORTHEAST ILLINOIS

CITY           SKY/WX    TMP DP  RH WIND       PRES   REMARKS
CHICAGO-OHARE  DRIZZLE   47  44  90 NE6       29.53F FOG
CHICAGO-MIDWAY DRZL/FOG  48  47  96 CALM      29.54F VSB 1
AURORA         CLOUDY    46  46 100 N5        29.54S FOG
LANSING*       DRIZZLE   46  46 100 S3        29.54F
JOLIET*        LGT RAIN  49  48  99 CALM      29.53F
WAUKEGAN       CLOUDY    44  44 100 CALM      29.54S FOG
DUPAGE AIRPORT CLOUDY    46  46 100 N6        29.53F FOG
KANKAKEE*      CLOUDY    50  46  85 SW3       29.54S
WHEELING       CLOUDY    46  46 100 CALM      29.55F FOG
MORRIS*        CLOUDY    47  46  96 CALM      29.52S FOG
ROMEOVILLE*    CLOUDY    46  46  97 N5        29.53F FOG
NORTHERLY ISL    N/A     47  45  93 NW2         N/A
$$

LMZ740>746-180900-
SOUTHERN LAKE MICHIGAN

STATION/POSITION SKY/WX   TEMP    WIND        PRES    VSBY  WAVE
                          AIR SEA DIR/SP/G                  HT/PER
                          (F)     (DEG/KT/KT) (MB)    (MI)  (FT/S)
SOUTHERN BUOY              46 49  250/  8/ 10 1001.4          5/ 6
HARRISON CRIB              46      20/  5/  6   N/A
BURNHAM HARBOR             47      CALM  /  8   N/A
BURNS HARBOR               48     210/  7/ 11 1001.4F
MICHIGAN CITY              44     340/  9/ 10   N/A
$$

ILZ025>027-034>036-040-047-049-050-058-095>099-180900-
WEST-CENTRAL ILLINOIS

CITY           SKY/WX    TMP DP  RH WIND       PRES   REMARKS
QUINCY         PTCLDY    56  55  97 S6        29.44F
GALESBURG*     DRIZZLE   51  50  97 CALM      29.50R
MACOMB*        CLOUDY    51  51  97 NE6       29.50S FOG
JACKSONVILLE*  PTCLDY    58  55  89 S9        29.46F
PITTSFIELD*    MOCLDY    59  57  92 S9        29.46F
$$

ILZ028>032-037-038-041>044-048-051>054-059>061-180900-
CENTRAL ILLINOIS

CITY           SKY/WX    TMP DP  RH WIND       PRES   REMARKS
PONTIAC        CLOUDY    51  50  98 CALM      29.52F
BLOOMINGTON    LGT RAIN  51  49  92 S8        29.51F
DECATUR        CLOUDY    55  50  83 S15       29.50F
PEORIA         LGT RAIN  50  49  96 N5        29.50F
LACON*         CLOUDY    50  48  92 S5        29.49F
LINCOLN*       CLOUDY    52  50  93 CALM      29.49F
SPRINGFIELD    MOCLDY    57  54  89 S12       29.48F
TAYLORVILLE    CLOUDY    58  55  90 S14       29.50F
$$

ILZ033-039-045-046-055>057-062-063-180900-
EAST-CENTRAL ILLINOIS

CITY           SKY/WX    TMP DP  RH WIND       PRES   REMARKS
CHAMPAIGN      CLOUDY    54  49  83 S17       29.50F
DANVILLE*      LGT RAIN  55  48  78 SW17G23   29.50F
RANTOUL*       LGT RAIN  53  50  89 S10       29.51F
MATTOON        MOCLDY    57  51  80 S14       29.53F
PARIS*         LGT RAIN  55  51  86 S17       29.54F
$$

ILZ079-100>102-180900-
SOUTHWEST ILLINOIS

CITY           SKY/WX    TMP DP  RH WIND       PRES   REMARKS
ALTON          CLOUDY    62  58  89 S10G16    29.50F
BELLEVILLE     MOCLDY    62  56  81 S10G18    29.51F
CAHOKIA*       CLOUDY    60  56  86 SE9       29.50F
SPARTA*        MOCLDY    63  56  80 S17G25    29.55F
$$

ILZ064>066-069>071-074>076-080>082-084>086-088>090-092>094-180900-
SOUTH-CENTRAL ILLINOIS

CITY           SKY/WX    TMP DP  RH WIND       PRES   REMARKS
CARBONDALE     CLOUDY    65  57  75 S22G32    29.59F
CAIRO*         CLOUDY    64  56  75 S8        29.65F
EFFINGHAM*     CLOUDY    61  55  79 S8        29.56F
MARION         CLOUDY    65  56  72 S17       29.62F
MT. VERNON     CLOUDY    62  55  77 S14       29.58F
CENTRALIA*     CLOUDY    64  57  78 S20       29.55F
SALEM*         CLOUDY    65  56  72 S17G25    29.55F
METROPOLIS*    CLOUDY    66  56  70 S14G26    29.67F
$$

ILZ067-068-072-073-078-083-087-091-180900-
SOUTHEAST ILLINOIS

CITY           SKY/WX    TMP DP  RH WIND       PRES   REMARKS
LAWRENCEVILLE  CLOUDY    58  49  72 S17       29.60F
FLORA*         MOCLDY    62  55  77 S15       29.58F
FAIRFIELD*     CLOUDY    61  55  79 S8        29.60F
HARRISBURG*    CLOUDY    65  56  72 S16       29.63F
ROBINSON*      CLOUDY    58  49  72 S17G24    29.58F
CARMI*         CLOUDY    60  54  78 S15       29.62F
$$

ABBREVIATIONS USED IN REMARKS
   TC - TEMPERATURE IN CELSIUS
  WCI - WIND CHILL INDEX
   HX - HEAT INDEX
  VSB - VISIBILITY
$$





USA.gov is the U.S. government's official web portal to all federal, state and local government web resources and services.